Weather History for Annette Island, AK

Change the Weather History Date:

Tuesday, May 8, 2012

  Actual Average Record
Temperature  
Mean Temperature 7 °C 9 °C  
Max Temperature 9 °C 13 °C 22 °C (1957)
Min Temperature 4 °C 6 °C 0 °C (1971)
Degree Days  
Heating Degree Days 21 17  
Month to date heating degree days 162 139  
Since 1 July heating degree days 6498 6084  
Cooling Degree Days 0    
Month to date cooling degree days 0  
Year to date cooling degree days 0  
Moisture  
Dew Point 2 °C    
Average Humidity 0    
Maximum Humidity 0    
Minimum Humidity 0    
Precipitation  
Precipitation 0.25 mm 4.83 mm 2.11 mm (1958)
Month to date precipitation 5.64 1.52  
Year to date precipitation 39.77 34.38  
Snow  
Snow 0.00 cm 0.00 cm T cm (1955)
Month to date snowfall 0.0 0.1  
Since 1 July snowfall 50.4 34.9  
Snow Depth 0.00 cm    
Sea Level Pressure  
Sea Level Pressure 1013 hPa    
Wind  
Wind Speed 14 km/h (SSE)    
Max Wind Speed 29 km/h    
Max Gust Speed 47 km/h    
Visibility 15 kilometers    
Events Rain    
T = Trace of Precipitation, MM = Missing Value Source: NWS Daily Summary

Daily Weather History Graph

Daily Weather History Graph

Search for Another Location

Airport:

Trip Planner

Search our weather history database for the weather conditions in past years. The results will help you decide how hot, cold, wet, or windy it might be!

Date:

Astronomy

May. 08, 2012 Rise Set
Actual Time 4:50 AM AKDT 8:36 PM AKDT
Civil Twilight 4:04 AM AKDT 9:22 PM AKDT
Nautical Twilight 3:00 AM AKDT 10:27 PM AKDT
Astronomical Twilight 1:15 AM AKDT 12:10 AM AKDT
Moon No Moon Rise 6:49 AM AKDT (5/8)
Length of Visible Light 17h 17m
Length of Day
15h 46m
Waning Gibbous, 89% of the Moon is Illuminated
May 8
Waning Gibbous
May 12
Last Quarter
May 20
New
May 28
First Quarter
Jun 4
Full

Hourly Weather History & Observations

Time (AKDT) Temp. Windchill Dew Point Humidity Pressure Visibility Wind Dir Wind Speed Gust Speed Precip Events Conditions
12:28 AM 6.0 °C 3.7 °C 4.0 °C 87% 1011.7 hPa 16.1 km South 11.1 km/h / 3.1 m/s - N/A   Overcast
12:44 AM 6.0 °C 3.3 °C 3.0 °C 81% 1011.7 hPa 16.1 km South 13.0 km/h / 3.6 m/s 25.9 km/h / 7.2 m/s N/A   Overcast
12:53 AM 6.1 °C 2.9 °C 3.3 °C 82% 1012.1 hPa 16.1 km South 16.7 km/h / 4.6 m/s 31.5 km/h / 8.7 m/s N/A   Overcast
1:30 AM 6.0 °C 3.3 °C 3.0 °C 81% 1012.4 hPa 16.1 km SSW 13.0 km/h / 3.6 m/s 29.6 km/h / 8.2 m/s 0.0 mm Rain Light Rain
1:53 AM 5.0 °C 2.8 °C 3.3 °C 89% 1013.2 hPa 12.9 km Variable 9.3 km/h / 2.6 m/s - 0.3 mm Rain Light Rain
2:22 AM 5.0 °C 3.3 °C 3.0 °C 87% 1013.4 hPa 16.1 km SSW 7.4 km/h / 2.1 m/s - 0.0 mm   Overcast
2:53 AM 5.0 °C 2.8 °C 3.3 °C 89% 1013.9 hPa 16.1 km SSW 9.3 km/h / 2.6 m/s - 0.0 mm Rain Light Rain
3:53 AM 4.4 °C 2.1 °C 1.1 °C 79% 1014.6 hPa 16.1 km Variable 9.3 km/h / 2.6 m/s - 0.0 mm   Partly Cloudy
4:53 AM 4.4 °C 3.2 °C 1.1 °C 79% 1015.1 hPa 16.1 km Variable 5.6 km/h / 1.5 m/s - N/A   Mostly Cloudy
5:53 AM 5.0 °C 3.9 °C 1.7 °C 79% 1015.6 hPa 16.1 km SE 5.6 km/h / 1.5 m/s - N/A   Mostly Cloudy
6:17 AM 6.0 °C 3.7 °C 2.0 °C 76% 1015.8 hPa 16.1 km Variable 11.1 km/h / 3.1 m/s - N/A   Mostly Cloudy
6:35 AM 6.0 °C 4.5 °C 2.0 °C 76% 1015.8 hPa 16.1 km Variable 7.4 km/h / 2.1 m/s - N/A   Mostly Cloudy
6:53 AM 6.1 °C 3.8 °C 1.7 °C 74% 1016.0 hPa 16.1 km Variable 11.1 km/h / 3.1 m/s - N/A   Overcast
7:53 AM 6.7 °C 3.9 °C 1.1 °C 68% 1016.4 hPa 16.1 km South 14.8 km/h / 4.1 m/s - N/A   Mostly Cloudy
8:53 AM 7.8 °C 5.5 °C 1.1 °C 63% 1016.5 hPa 16.1 km South 13.0 km/h / 3.6 m/s - N/A   Mostly Cloudy
9:53 AM 7.8 °C 4.4 °C 2.2 °C 68% 1016.4 hPa 16.1 km South 22.2 km/h / 6.2 m/s 33.3 km/h / 9.3 m/s N/A   Partly Cloudy
10:53 AM 8.3 °C - 2.2 °C 66% 1016.4 hPa 16.1 km SSE 20.4 km/h / 5.7 m/s 35.2 km/h / 9.8 m/s N/A   Scattered Clouds
11:53 AM 8.9 °C - 2.2 °C 63% 1016.2 hPa 16.1 km SSE 22.2 km/h / 6.2 m/s 38.9 km/h / 10.8 m/s N/A   Mostly Cloudy
12:53 PM 8.9 °C - 2.8 °C 66% 1015.9 hPa 16.1 km SSE 18.5 km/h / 5.1 m/s 37.0 km/h / 10.3 m/s N/A   Scattered Clouds
1:53 PM 8.3 °C - 2.8 °C 68% 1015.3 hPa 16.1 km SSE 29.6 km/h / 8.2 m/s 44.4 km/h / 12.3 m/s N/A   Mostly Cloudy
2:53 PM 8.3 °C - 2.2 °C 66% 1014.8 hPa 16.1 km SSE 18.5 km/h / 5.1 m/s 40.7 km/h / 11.3 m/s N/A   Mostly Cloudy
3:43 PM 8.0 °C 4.8 °C 2.0 °C 66% 1013.8 hPa 16.1 km SSE 20.4 km/h / 5.7 m/s 38.9 km/h / 10.8 m/s N/A   Mostly Cloudy
3:53 PM 7.8 °C 4.4 °C 2.8 °C 71% 1014.0 hPa 16.1 km SSE 22.2 km/h / 6.2 m/s 37.0 km/h / 10.3 m/s N/A   Mostly Cloudy
4:38 PM 8.0 °C 4.5 °C 2.0 °C 66% 1013.4 hPa 16.1 km SSE 24.1 km/h / 6.7 m/s 38.9 km/h / 10.8 m/s N/A   Overcast
4:53 PM 7.2 °C 3.3 °C 2.2 °C 71% 1013.4 hPa 16.1 km SSE 25.9 km/h / 7.2 m/s 48.2 km/h / 13.4 m/s N/A   Overcast
5:20 PM 6.0 °C 2.8 °C 2.0 °C 76% 1013.1 hPa 16.1 km SW 16.7 km/h / 4.6 m/s 42.6 km/h / 11.8 m/s N/A   Overcast
5:53 PM 3.9 °C 1.1 °C 2.2 °C 89% 1012.7 hPa 8.0 km SSE 11.1 km/h / 3.1 m/s 29.6 km/h / 8.2 m/s 1.5 mm Rain Light Rain
6:51 PM 4.0 °C -1.5 °C 3.0 °C 93% 1011.7 hPa 14.5 km SE 33.3 km/h / 9.3 m/s 46.3 km/h / 12.9 m/s 1.3 mm Rain Light Rain
6:53 PM 4.4 °C -1.0 °C 2.8 °C 89% 1012.0 hPa 14.5 km SE 33.3 km/h / 9.3 m/s 48.2 km/h / 13.4 m/s 1.3 mm Rain Light Rain
7:48 PM 4.0 °C 0.9 °C 3.0 °C 93% 1012.1 hPa 9.7 km SW 13.0 km/h / 3.6 m/s - 1.3 mm Rain Light Rain
7:53 PM 3.3 °C 2.0 °C 2.8 °C 97% 1012.1 hPa 8.0 km Variable 5.6 km/h / 1.5 m/s - 1.5 mm Rain Rain
8:03 PM 3.0 °C - 2.0 °C 93% 1011.7 hPa 16.1 km Calm Calm - 0.0 mm Rain Light Rain
8:44 PM 4.0 °C 1.2 °C 2.0 °C 87% 1012.1 hPa 16.1 km ESE 11.1 km/h / 3.1 m/s - 0.0 mm   Overcast
8:53 PM 3.9 °C 2.0 °C 2.2 °C 89% 1012.2 hPa 16.1 km SE 7.4 km/h / 2.1 m/s - 0.0 mm   Overcast
9:13 PM 4.0 °C 2.1 °C 3.0 °C 93% 1011.4 hPa 16.1 km ESE 7.4 km/h / 2.1 m/s - 0.0 mm Rain Light Rain
9:53 PM 4.4 °C 0.3 °C 1.7 °C 83% 1011.6 hPa 16.1 km South 20.4 km/h / 5.7 m/s 33.3 km/h / 9.3 m/s 0.3 mm Rain Light Rain
10:02 PM 4.0 °C 0.9 °C 2.0 °C 87% 1011.4 hPa 16.1 km SSE 13.0 km/h / 3.6 m/s 35.2 km/h / 9.8 m/s 0.3 mm Rain Light Rain
10:12 PM 5.0 °C 1.3 °C 2.0 °C 81% 1011.1 hPa 16.1 km South 18.5 km/h / 5.1 m/s 31.5 km/h / 8.7 m/s 0.3 mm   Overcast
10:19 PM 4.0 °C -0.2 °C 1.0 °C 81% 1011.1 hPa 16.1 km South 20.4 km/h / 5.7 m/s 40.7 km/h / 11.3 m/s 0.3 mm Rain Light Rain
10:53 PM 3.9 °C 1.1 °C 0.6 °C 79% 1011.2 hPa 16.1 km SE 11.1 km/h / 3.1 m/s - 0.3 mm   Mostly Cloudy
11:01 PM 4.0 °C 0.0 °C 2.0 °C 87% 1011.1 hPa 16.1 km South 18.5 km/h / 5.1 m/s 33.3 km/h / 9.3 m/s N/A   Mostly Cloudy
11:09 PM 5.0 °C 1.3 °C 1.0 °C 76% 1011.1 hPa 16.1 km South 18.5 km/h / 5.1 m/s 33.3 km/h / 9.3 m/s N/A   Overcast
11:49 PM 4.0 °C -0.4 °C 1.0 °C 81% 1011.1 hPa 16.1 km South 22.2 km/h / 6.2 m/s 38.9 km/h / 10.8 m/s N/A   Overcast
11:51 PM 4.0 °C -0.4 °C 1.0 °C 81% 1011.1 hPa 16.1 km South 22.2 km/h / 6.2 m/s 38.9 km/h / 10.8 m/s 0.0 mm Rain Light Rain
11:53 PM 3.9 °C -0.3 °C 1.1 °C 82% 1011.1 hPa 16.1 km South 20.4 km/h / 5.7 m/s 38.9 km/h / 10.8 m/s 0.0 mm Rain Light Rain